« Back
NWS Peachtree City, Ga » Text Product » GA Regional Weather Roundup


Printer-friendly Version
Current Version              Previous Versions:   1  2  3  4  5  6  7  8  9  

Regional Weather Roundup

760
ASUS42 KFFC 062203
RWRGA
WEATHER ROUNDUP FOR GEORGIA
NATIONAL WEATHER SERVICE PEACHTREE CITY GA
600 PM EDT FRI MAY 06 2016

NOTE: "FAIR" INDICATES FEW OR NO CLOUDS BELOW 12,000 FEET WITH NO
SIGNIFICANT WEATHER AND/OR OBSTRUCTIONS TO VISIBILITY.

* = USE WITH CAUTION. THE STATIONS MARKED WITH AN ASTERISK MAY NOT
REPORT WEATHER SUCH AS PRECIPITATION, FOG, OR THUNDER AND ARE NOT
QUALITY CONTROLLED BY NWS.

THE REMARK "TC" DENOTES TEMPERATURE READING IN DEGREES CELSIUS.

GAZ001>058-062300-
NORTH GEORGIA

CITY           SKY/WX    TMP DP  RH WIND       PRES   REMARKS
ATLANTA        PTSUNNY   71  39  31 N18G26    29.89F
ATHENS         MOSUNNY   68  39  34 VRB6      29.85S
CHAMBLEE       PTSUNNY   70  41  34 NW14G25   29.89S
PEACHTREE CITY PTSUNNY   71  40  32 NW18G25   29.90F
ROME           MOSUNNY   69  39  33 NW10      29.91F
WEST ATLANTA   MOSUNNY   69  40  34 N15G23    29.90S
GAINESVILLE    PTSUNNY   67  36  31 N12       29.89S
CARTERSVILLE   LGT RAIN  70  41  34 N9G18     29.91F


CITY           SKY/WX    TMP DP  RH WIND       PRES   REMARKS
DALTON*        SUNNY     68  43  40 N12G18    29.90F
LAWRENCEVILLE* MOSUNNY   66  37  34 N12       29.88F
KENNESAW*      MOSUNNY   68  39  34 N9G22     29.89F
CANTON*        MOSUNNY   68  28  22 NW8G20    29.91S
BLAIRSVILLE*     N/A    N/A N/A N/A MISG      29.90S
$$

GAZ059>098-102>109-062300-
CENTRAL GEORGIA

CITY           SKY/WX    TMP DP  RH WIND       PRES   REMARKS
AUGUSTA-BUSH   PTSUNNY   70  42  36 W12       29.82R
AUGUSTA-DANIEL PTSUNNY   70  42  36 VRB6      29.83S
COLUMBUS       PTSUNNY   73  41  31 N15G24    29.90S
MACON          CLOUDY    70  41  34 NW7       29.87S


CITY           SKY/WX    TMP DP  RH WIND       PRES   REMARKS
LAGRANGE*      PTSUNNY   72  47  42 N9G17     29.92S
SYLVANIA*      PTSUNNY   70  52  52 N6        29.83S
MILLEDGEVILLE* CLOUDY    70  39  32 NW3       29.86S
$$

GAZ099>101-110>166-062300-
SOUTH GEORGIA

CITY           SKY/WX    TMP DP  RH WIND       PRES   REMARKS
SAVANNAH       PTSUNNY   72  44  36 W10       29.83S
VALDOSTA       MOSUNNY   73  42  32 VRB5      29.87R
ALMA           MOSUNNY   72  45  37 NW12      29.85S
ST SIMONS      MOSUNNY   68  51  54 SE7       29.84S
ALBANY         MOSUNNY   74  42  31 NW15G21   29.90R
BRUNSWICK      MOSUNNY   81  46  30 W7        29.84S


CITY           SKY/WX    TMP DP  RH WIND       PRES   REMARKS
BAINBRIDGE*    SUNNY     73  43  33 N16       29.90R
MOULTRIE*      SUNNY     73  41  31 N12       29.88S
VIDALIA*       MOSUNNY   72  45  37 NW14      29.84S
WAYCROSS*      MOSUNNY   71  48  43 NW5       29.85S
DOUGLAS*       MOSUNNY   72  43  35 N8        29.88R
$$




USA.gov is the U.S. government's official web portal to all federal, state and local government web resources and services.